Regional Weather Roundup
Issued by NWS

Home | Current Version | Previous Version | Text Only | Print | Product List | Glossary On
Versions: 1 2 3 4 5 6 7 8 9 10 11 12 13 14 15 16 17 18 19 20 21 22 23 24 25 26 27 28 29 30 31 32 33 34 35 36 37 38 39 40 41 42 43 44 45 46 47 48 49 50
000
ASUS44 KEWX 270211
RWRTX
SOUTH TEXAS REGIONAL WEATHER ROUNDUP
NATIONAL WEATHER SERVICE AUSTIN/SAN ANTONIO TX
900 PM CDT MON JUN 26 2017

NOTE: "FAIR" INDICATED FEW OR NO CLOUDS BELOW 12,000 FEET WITH NO
SIGNIFICANT WEATHER AND/OR OBSTRUCTIONS TO VISIBILITY.

* - THESE STATIONS ARE NOT NWS OR FAA STATIONS...AND ARE NOT SUBJECT
    TO NWS AND FAA QUALITY CONTROL.

TXZ171-172-183>190-270300-
TEXAS HILL COUNTRY AND EDWARDS PLATEAU

CITY           SKY/WX    TMP DP  RH WIND       PRES   REMARKS
JUNCTION       CLOUDY    74  67  78 E9        30.10R
*LLANO         LGT RAIN  75  73  94 NW8       30.07R
BURNET         CLOUDY    79  68  69 NE7       30.05R
*HORSESHOE BAY LGT RAIN  76  73  89 CALM      30.02S
*KERRVILLE     MOCLDY    77  69  78 SE5       30.05R
*FREDERICKSBRG LGT RAIN  74  68  81 E3        30.05R
*ROCKSPRINGS   LGT RAIN  73  73 100 CALM      30.09S
*BOERNE STAGE  CLOUDY    73  64  73 SE5       30.06R
*CASTROVILLE   CLOUDY    78  74  90 E3        30.02R
HONDO          MOCLDY    79  73  82 E10       30.00R
*UVALDE        RAIN      76  72  89 CALM      30.00R
DEL RIO        CLOUDY    83  68  60 NE16G22   29.96R
LAUGHLIN AFB   NOT AVBL
CARRIZO SPRGS  PTCLDY    82  68  61 SE8G22    29.95R
*EAGLE PASS      N/A    N/A N/A N/A MISG        N/A
$$

TXZ173-191>194-202-209-217>225-228-270300-
CENTRAL AND SOUTH CENTRAL TEXAS

CITY           SKY/WX    TMP DP  RH WIND       PRES   REMARKS
GEORGETOWN     PTCLDY    82  70  65 SE9       30.02R
AUSTIN/BERGSTM TSTM      76  74  93 SW7       30.02R FOG
AUSTIN/MABRY   TSTM      72  71  97 VRB5G20   30.05R VSB 1
*AUSTIN/EXEC     N/A     81  72  74 S10       30.02R
*LAGO VISTA    CLOUDY    80  71  74 SE10G24   30.05R
SAN MARCOS     CLOUDY    75  73  94 W6        30.04S
NEW BRAUNFELS  RAIN      74  72  93 N7        30.01S
RANDOLPH AFB   CLOUDY    77  72  83 NE9       30.01R
PT SAN ANTONIO CLOUDY    81  71  70 E8        29.99R
SAN ANTONIO    LGT RAIN  81  69  67 E12       30.02R
STINSON FIELD  PTCLDY    81  71  71 E8        29.98R
*LA GRANGE     PTCLDY    77  74  91 S3        30.00R
*GIDDINGS      PTCLDY    77  70  80 S5        30.02S
*GONZALES      MOCLDY    79  75  85 SE6       30.00S
$$

TXZ163>164-176>182-195>201-210>213-226-227-235-270300-
SOUTHEAST TEXAS

CITY           SKY/WX    TMP DP  RH WIND       PRES   REMARKS
COLLEGE STN    MOCLDY    77  71  82 SE10      30.01R
*BRYAN         RAIN      76  76  99 SE8       30.02R
*CALDWELL      NOT AVBL
*CROCKETT      PTCLDY    81  72  74 CALM      30.04S
*BRENHAM       PTCLDY    77  72  84 SE5       30.01S
HUNTSVILLE     CLOUDY    80  70  71 E3        30.01S
CONROE         CLOUDY    75  73  93 CALM      30.02R
HOUSTON BUSH   CLOUDY    78  72  81 SE7       30.00S
HOUSTON HOBBY  LGT RAIN  80  74  81 NE6       29.99F
*HOUSTON SW AP LGT RAIN  76  74  93 CALM      30.01S
PEARLAND       CLOUDY    82  75  79 VRB3      30.01S
HOUSTON HOOKS  CLOUDY    76  74  93 SW6       30.01S
ELLINGTON FLD  MOCLDY    81  77  89 NE6       30.00F
SUGAR LAND     CLOUDY    77  74  90 NE5       30.00F
*HOUSTON EXEC  CLOUDY    75  73  94 E5        30.02S
*CLEVELAND MUN CLOUDY    74  72  95 CALM      30.03R
*WHARTON       PTCLDY    77  72  84 NE3       30.01S
*COLUMBUS      DRIZZLE   74  72  92 S5        30.01F
*EAGLE LAKE    DRIZZLE   76  76  98 CALM      29.99F
$$

TXZ214>216-236>238-270300-
THE UPPER TEXAS COAST

CITY           SKY/WX    TMP DP  RH WIND       PRES   REMARKS
*ORANGE        CLOUDY    77  73  87 S5        30.04S
PORT ARTHUR    CLOUDY    77  72  84 SE13      30.02R
GALVESTON      LGT RAIN  78  77  96 S7        30.00F
ANGLETON       CLOUDY    77  75  93 SE7       30.00S
*BAY CITY      CLOUDY    78  75  92 CALM      30.00S
PALACIOS       PTCLDY    74  74 100 NE7       29.99R
$$

TXZ229>234-239>247-270300-
TEXAS COASTAL BEND AND RIO GRANDE PLAINS

CITY           SKY/WX    TMP DP  RH WIND       PRES   REMARKS
VICTORIA       PTCLDY    79  74  84 CALM      30.00S
*BEEVILLE      PTCLDY    77  73  88 E5        29.98F
ROCKPORT       CLOUDY    82  73  74 SE9       29.97R
*PORT ARANSAS  PTCLDY    81  74  80 E6        29.97S
*PORT LAVACA   LGT RAIN  78  78 100 CALM      29.99F
*INGLESIDE     CLOUDY    82  75  78 MISG      29.97S
CORPUS CHRISTI CLOUDY    84  74  71 E8        29.97R HX  91
CORPUS NAS     CLOUDY    83  75  77 E8        29.96S HX  90
*ROBSTOWN      CLOUDY    82  73  75 E5        29.97S
ALICE          CLOUDY    81  72  74 E8        29.96S
KINGSVILLE NAS MOCLDY    80  77  90 E6        29.96S
COTULLA        CLEAR     82  72  71 SE14      29.96R
*FAITH RANCH   PTCLDY    82  70  65 E10G18    29.96R
LAREDO         CLEAR     81  73  76 E13G18    29.96R
$$

TXZ248>255-270300-
DEEP SOUTH TEXAS

CITY           SKY/WX    TMP DP  RH WIND       PRES   REMARKS
BROWNSVILLE    PTCLDY    80  73  79 E6        29.94S
PORT ISABEL    PTCLDY    82  75  79 E9        29.93S
*SOUTH PADRE   NOT AVBL
HARLINGEN      CLOUDY    80  75  84 E7        29.94R
*HEBBRONVILLE  MOCLDY    78  70  77 CALM      29.98S
MCALLEN        MOCLDY    85  72  65 E12       29.94R HX  91
*WESLACO       CLOUDY    82  73  72 SE7       29.94S
FALFURRIAS     CLOUDY    82  73  73 E6        29.95F
EDINBURG       PTCLDY    84  72  67 E8        29.95R HX  90
*ZAPATA        PTCLDY    83  70  63 E8        29.94R
$$

TXZ213>215-236>238-242>244-246-247-251-254-255-270300-
CMAN STATIONS

STATION/POSITION TIME  TEMP    WIND        PRES    WAVE
                       AIR SEA DIR/SP/G            HT/PER
                 (UTC) (F)     (DEG/KT/KT) (MB)    (FT/S)
SABINE PASS      0136   74 87  120/ 13/ 20 1018.5
SEA RIM ST PARK  0200   74      80/ 11/ 15 1017.0
NORTH JETTY/GLS  0136      85  130/ 13/ 15 1015.5
EAGLE POINT      0136   81 85  160/ 13/ 16 1015.8
MORGANS POINT    0136   80 84   70/  6/  8 1015.7
MISSION/ARANSAS  0100          100/ 10       N/A
PORT O`CONNOR    0142   80     150/ 15/ 17 1014.9
PORT ARANSAS     0200   82 85  100/ 10/ 11 1015.0
MALAQUITE BEACH  0142   82 87   90/  8/  9 1014.0
BAFFIN BAY       0142   83 88              1014.7
PORT ISABEL      0142   82 88              1013.7
$$

GMZ080-GMZ150>470-270300-
OFFSHORE BUOY REPORTS

STATION/POSITION TIME  TEMP    WIND        PRES    WAVE
                       AIR SEA DIR/SP/G            HT/PER
                 (UTC) (F)     (DEG/KT/KT) (MB)    (FT/S)
20 E GALVESTON   0050   82 83  120/ 10/ 12 1016.1    2/ 6
90 E PT ARANSAS  0150   81 85   60/ 14/ 16 1014.9    3/ 5
35 NE PT MANSFLD 0150   80     140/ 14/ 16 1013.4    3/ 6
200 E PT ISABEL  0150   82 83  150/  6/  8 1014.9    3/ 5
$$



USA.gov is the U.S. government's official web portal to all federal, state and local government web resources and services.